Regional Weather Roundup
Issued by NWS Cleveland, OH

Home | Current Version | Previous Version | Text Only | Print | Product List | Glossary On
Versions: 1 2 3 4 5 6 7 8 9 10 11 12 13 14 15 16 17 18 19 20 21 22 23 24 25 26 27 28 29 30 31 32 33 34 35 36 37 38 39 40 41 42 43 44 45 46 47 48 49 50
000
ASUS41 KCLE 260702
RWRCLE
OHIO REGIONAL WEATHER ROUNDUP
NATIONAL WEATHER SERVICE CLEVELAND, OH
300 AM EDT SAT JUL 26 2014

NOTE: "FAIR" INDICATES FEW OR NO CLOUDS BELOW 12,000 FEET WITH NO
SIGNIFICANT WEATHER AND/OR OBSTRUCTIONS TO VISIBILITY.

OHZ001>008-015>018-024>027-034-035-043-044-260800-
   NORTHWEST OHIO

CITY           SKY/WX    TMP DP  RH WIND       PRES   REMARKS
DEFIANCE       CLEAR     59  55  87 CALM      29.97F
FINDLAY        CLOUDY    65  58  78 S6        29.97F
TOLEDO EXPRESS CLEAR     60  57  89 S5        29.96F
TOLEDO EXEC    CLEAR     62  56  80 S6        29.97F
LIMA           CLOUDY    67  58  72 SE6       29.98F
$$

OHZ009>014-019>023-028>033-038-089-260800-
   NORTHEAST OHIO

CITY           SKY/WX    TMP DP  RH WIND       PRES   REMARKS
CLE-HOPKINS    CLOUDY    64  61  90 S3        30.01S
CLE-LAKEFRONT  CLOUDY    66  60  81 S8        29.97F
CUY CO. ARPT   NOT AVBL
LORAIN-ELYRIA  CLOUDY    66  60  81 S3        29.99F
ASHTABULA      CLOUDY    62  56  80 S3        30.00F
AKRON-CANTON   LGT RAIN  67  60  78 SE7       30.01F
WOOSTER        CLOUDY    65  61  87 CALM      30.01F
MANSFIELD      CLOUDY    66  59  78 CALM      30.01F
YOUNGSTOWN     LGT RAIN  61  59  93 E6        30.02F
$$

OHZ042-051>053-060>062-070>072-077>081-260800-
  SOUTHWEST OHIO

CITY           SKY/WX    TMP DP  RH WIND       PRES   REMARKS
CINC-COVINGTON CLOUDY    67  62  84 S5        30.00F
CINC-LUNKEN    CLOUDY    65  63  93 CALM      30.00F
HAMILTON       CLOUDY    66  64  93 CALM      30.00F
DAYTON         CLOUDY    67  59  75 SE3       30.00F
WRIGHT-PAT AFB MOCLDY    66  61  83 SW2       30.00F
DAYTON GENERAL MOCLDY    66  62  87 S3        30.00F
WILMINGTON     CLOUDY    64  61  90 SE3       30.01F
$$

OHZ036-037-039>041-045>050-054>059-063>069-073>076-082>088-260800-
  CENTRAL AND SOUTHEAST OHIO

CITY           SKY/WX    TMP DP  RH WIND       PRES   REMARKS
COLUMBUS       CLOUDY    71  59  65 S5        29.99F
OSU AIRPORT    CLOUDY    69  59  70 S3        29.99F
BOLTON FIELD   MOCLDY    65  62  90 S3        30.01S
RICKENBACK AFB CLOUDY    67  59  74 S3        30.00S
NEWARK         CLOUDY    66  61  84 CALM      30.00F
MARION         CLOUDY    65  59  81 S3        30.00F
LANCASTER      CLOUDY    67  62  84 CALM      30.01F
ZANESVILLE     CLOUDY    66  61  84 CALM      30.01F
NEW PHILLY     CLOUDY    64  62  93 CALM      30.02F
$$



USA.gov is the U.S. government's official web portal to all federal, state and local government web resources and services.